FENGYUN 1C DEB

Satellite information

Favourite Embed

Satellite Type and Status

DEBRISIN ORBIT

Key statistics

Satellite FENGYUN 1C DEB at a glance.

Uptime

9500

Days in orbit

Revolutions

≈ 13.8

Per day

Orbit

SSO

Sun Synchronous Orbit

Inclination

98.6

Latest

Satellite identification and parameters

Extended collection of information and parameters for FENGYUN 1C DEB.

Object identification

Identified? True

Debris? True

Object name: FENGYUN 1C DEB

International designator: 1999-025BCX

Object number (NORAD): 31005

Object ID (CCSDS): 31005

Country: PEOPLES REPUBLIC OF CHINA (PRC)

Current information (Y/N): Y

RCS size: SMALL

Orbital parameters

Period: 104.161 minutes

Inclination: 98.6012 deg

SMA: 7333.253 km

Apoapsis: 1090.521 km

Periapsis: 819.715 km

RAAN: 284.803 deg

Eccentricy: 0.0184642

Argument of periapsis: 186.1173 deg

Mean anomaly: 328.4906 deg

Mean motion: 13.82476511 rev/day

Mean motion (dot): 0.00002142 rev/day2

B* drag term: 0.0017671 1/REarth

Two-line elements (TLE)

Creation date: May 12, 2025, 10:56 p.m.

Reference frame: TEME

Reference center: EARTH

Epoch: May 12, 2025, 9:25 p.m. UTC

TLE line 0: 0 FENGYUN 1C DEB

TLE line 1: 1 31005U 99025BCX 25132.89264307 .00002142 00000-0 17671-2 0 9999

TLE line 2: 2 31005 98.6012 284.8030 0184642 186.1173 328.4906 13.82476511913490

Live tracking on map

Real-time ground track for satellite FENGYUN 1C DEB.

In-orbit conjunctions

A list of the most updated potential collisions computed for object FENGYUN 1C DEB.

Target Orbit TCA Probability of collision Miss distance Type
COSMOS 1000 LEO 2025-01-06 08:56:09 0.000101438 238.0 (m) PAYLOAD
CZ-6A DEB SSO 2024-05-29 03:14:21 0.0001453856 134.0 (m) DEBRIS

Associated space launch

Chinese polar orbiting meteorological satellite

FENGYUN 1C DEB was lifted into orbit during the mission ‘Long March 4B | Feng Yun 1C’, on board a Long March 4B space rocket.

The launch took place on May 10, 1999, 1:33 a.m. from Launch Complex 7.

For more information about the launch, click the button.

Launch to space Long March 4B | Feng Yun 1C
Long March 4B | Feng Yun 1C

Agency: N/A

Status: Launch Successful

Launch date: May 10, 1999, 1:33 a.m. UTC

Rocket: Long March 4B

Launch pad: Launch Complex 7

Location: Taiyuan Satellite Launch Center, People's Republic of China

...

Latest news about this satellite

There are no fresh news available about this satellite. Check back as we update our databases every day.


Newsletter sign-up

Weekly statistics, charts and insights to help you stay on top of the space industry.